[[{"header":{"parameterUnit":"m.s-1","parameterCategory":1,"la1":30.2991,"la2":30.254,"lo1":-89.0895,"lo2":-89.0444,"dy":0.0017,"dx":0.0017,"nx":28,"ny":28,"refTime":"2025-07-14T09:00:00:Z","depth":0,"parameterNumber":2,"parameterNumberName":"U-component_of_WINDS"},"data":[0,0,0,0,0,0,0,0,0,0,0,0,0,0,0,0,0,0,0,0,0,0,0,0,0,0,0,0,0,0,0,0,0,0,0,0,0,0,0,0,0,0,0,0,0,0,0,0,0,0,0,0,0,0,0,0,0,0,1.8196,1.8196,0,1.8227,1.8228,1.8228,1.8164,1.8162,1.816,1.8158,1.8193,1.8196,1.8199,0,0,0,0,0,0,0,0,0,0,0,0,0,1.8082,1.8084,1.8196,1.8196,1.8196,1.8227,1.8228,1.8228,1.8164,1.8162,1.8159,1.8157,1.8192,1.8195,1.8199,0,0,0,0,0,0,0,0,0,0,0,0,0,1.8124,1.8085,1.8196,1.8168,1.8166,1.8227,1.8228,1.8228,1.8165,1.8162,1.8159,1.8156,1.8191,1.8195,1.8199,1.8289,0,0,1.8213,1.8214,0,0,0,0,0,0,0,0,1.8122,1.8128,1.8172,1.817,1.8168,1.8188,1.82,1.8249,1.8166,1.8166,1.8158,1.8154,1.8194,1.8198,1.8211,1.8291,1.8292,1.8213,1.8216,1.8217,1.8219,0,0,0,0,0,0,0,1.8119,1.8127,1.8208,1.8173,1.817,1.8155,1.8158,1.8209,1.8197,1.8165,1.8161,1.8165,1.8192,1.8207,1.8211,1.8293,1.8213,1.8217,1.8219,1.8221,1.8446,1.845,0,0,0,0,0,0,1.8119,1.8125,1.8207,1.8209,1.8137,1.816,1.8162,1.8185,1.8196,1.8195,1.8168,1.8162,1.8201,1.8206,1.8212,1.8316,1.8217,1.8221,1.8224,1.8443,1.8447,1.8451,0,0,0,0,0,0,1.8117,1.8127,1.8206,1.8166,1.8174,1.8165,1.8191,1.8187,1.8202,1.8198,1.8196,1.8185,1.8199,1.8206,1.827,1.8317,1.8223,1.8227,1.8439,1.8444,1.8449,1.8527,0,0,0,0,0,0,1.8114,1.8127,1.816,1.8167,1.8177,1.8263,1.8194,1.819,1.8209,1.8202,1.8213,1.8212,1.8197,1.8264,1.8274,1.8321,1.8231,1.8435,1.8441,1.8447,1.852,1.8534,1.8546,0,0,0,0,0,1.811,1.8182,1.8162,1.8173,1.8219,1.8265,1.8271,1.8251,1.8213,1.8247,1.8245,1.8212,1.8311,1.8271,1.8282,1.8331,1.8432,1.8439,1.8447,1.8514,1.8531,1.8545,0,0,0,0,0,0,1.8182,1.8182,1.816,1.8236,1.8251,1.8255,1.8296,1.827,1.8297,1.8289,1.8264,1.8267,1.8335,1.834,1.8296,1.8418,1.8365,1.8375,1.8412,1.8428,1.8441,1.8437,1.8234,0,0,0,0,0,1.8206,1.8244,1.8242,1.8309,1.8318,1.8306,1.8326,1.8309,1.8324,1.833,1.8332,1.8349,1.8383,1.8406,1.8438,1.8521,1.8522,1.856,1.8573,1.8584,1.8592,1.8635,1.8652,1.8476,1.8476,1.8476,0,0,1.8257,1.8262,1.8287,1.8324,1.8333,1.8373,1.8312,1.8357,1.8385,1.8337,1.8396,1.8399,1.8416,1.8489,1.8521,1.8495,1.8641,1.8593,1.8602,1.8605,1.8645,1.8661,1.8676,1.8481,1.848,1.8479,0,0,1.837,1.8378,1.8434,1.8445,1.8459,1.8451,1.8465,1.8472,1.8472,1.8531,1.8495,1.853,1.859,1.8603,1.8617,1.8735,1.8705,1.8746,1.8813,1.8855,1.8869,1.8881,1.8921,1.8936,1.8755,1.8755,1.8755,0,1.8431,1.8489,1.8466,1.8513,1.8529,1.8487,1.8543,1.8555,1.858,1.8593,1.8563,1.8636,1.8645,1.872,1.8748,1.8762,1.8776,1.8744,1.8869,1.8881,1.8892,1.893,1.8945,1.876,1.8759,1.8759,1.8759,0,1.8563,1.8603,1.8647,1.867,1.8693,1.8744,1.8729,1.8755,1.8737,1.8732,1.8792,1.8801,1.8833,1.885,1.8833,1.8923,1.8905,1.8873,1.8818,1.8913,1.8949,1.8963,1.8767,1.8765,1.8764,1.8762,0,0,1.8719,1.873,1.8746,1.8756,1.877,1.8801,1.8851,1.8881,1.8902,1.8922,1.8962,1.9014,1.8984,1.9,1.8985,1.9022,1.9113,1.8984,1.8984,1.9006,1.921,1.9233,1.925,1.9094,1.9097,1.9099,1.9208,0,1.8829,1.8913,1.8895,1.8978,1.9014,1.8975,1.9018,1.9031,1.9029,1.906,1.9057,1.9093,1.9051,1.906,1.9096,1.9094,1.9153,1.9086,1.9131,1.9133,1.9126,1.9269,1.9294,1.9396,1.9222,1.9224,1.9226,0,1.8968,1.8991,1.9078,1.9084,1.9099,1.9138,1.9164,1.9195,1.9209,1.9204,1.9223,1.92,1.9249,1.9196,1.9264,1.9219,1.9236,1.9238,1.9242,1.9244,1.9184,1.9273,1.9428,1.9443,1.9248,1.9246,1.9245,0,1.9071,1.9124,1.9182,1.9192,1.9203,1.9231,1.9236,1.9248,1.9267,1.929,1.9302,1.9332,1.9348,1.9371,1.9357,1.932,1.9427,1.9373,1.9423,1.9424,1.9446,1.9444,1.9604,1.9461,1.9461,1.9461,1.946,0,1.9194,1.9248,1.9228,1.9264,1.9323,1.9302,1.9361,1.9363,1.9373,1.9408,1.9378,1.9412,1.9392,1.9424,1.9414,1.9471,1.9479,1.9476,1.9472,1.9478,1.9478,1.9487,1.9479,1.9465,1.9464,1.9463,1.9462,0,1.9318,1.9307,1.9368,1.9372,1.9375,1.9418,1.9422,1.9456,1.9451,1.9496,1.9505,1.9498,1.9535,1.9523,1.9564,1.9556,1.9628,1.9616,1.9622,1.9619,1.9669,1.9664,1.9839,1.9861,1.9706,1.9707,1.9709,0,1.9396,1.9436,1.9445,1.9466,1.9474,1.9509,1.9528,1.9509,1.953,1.955,1.9581,1.9615,1.964,1.9701,1.97,1.973,1.9717,1.9777,1.9722,1.9725,1.9716,1.9713,1.9716,1.9787,1.9789,1.9791,1.9792,0,1.9535,1.9527,1.9556,1.9583,1.9606,1.9627,1.9645,1.9664,1.9646,1.9672,1.9709,1.9729,1.9769,1.9803,1.9831,1.9837,1.9812,1.9809,1.9822,1.9827,1.9828,1.9826,1.965,1.9805,1.9804,1.9803,1.9802,1.9801,1.9636,1.967,1.9681,1.9714,1.9725,1.9743,1.9774,1.9773,1.9803,1.9833,1.9821,1.9863,1.9877,1.9911,1.9921,1.9954,1.9931,1.9951,1.9955,1.996,1.9965,1.9825,1.9959,1.9959,1.9959,1.9958,1.9958,0,1.9771,1.9777,1.9807,1.9833,1.9859,1.9833,1.9851,1.9874,1.9911,1.9926,1.9952,1.9994,2.0027,2.0028,2.0059,2.0085,2.0074,2.0093,2.009,2.0092,1.9985,1.9969,2.0101,2.0101,2.0101,2.0101,2.0101,2.0101,1.9844,1.9899,1.9894,1.9954,1.9959,1.9999,2.0012,2.0028,2.0039,2.0087,2.0114,2.0114,2.0124,2.0155,2.0184,2.0184,2.0195,2.0219,2.0214,2.0114,2.0099,2.0086,2.0071,2.0222,2.0223,2.0318,2.0319,2.032]},{"header":{"parameterUnit":"m.s-1","parameterCategory":1,"la1":30.2991,"la2":30.254,"lo1":-89.0895,"lo2":-89.0444,"dy":0.0017,"dx":0.0017,"nx":28,"ny":28,"refTime":"2025-07-14T09:00:00:Z","depth":0,"parameterNumber":3,"parameterNumberName":"V-component_of_WINDS"},"data":[0,0,0,0,0,0,0,0,0,0,0,0,0,0,0,0,0,0,0,0,0,0,0,0,0,0,0,0,0,0,0,0,0,0,0,0,0,0,0,0,0,0,0,0,0,0,0,0,0,0,0,0,0,0,0,0,0,0,2.3819,2.3818,0,2.3751,2.375,2.3749,2.3675,2.3674,2.3673,2.3672,2.3599,2.3598,2.3597,0,0,0,0,0,0,0,0,0,0,0,0,0,2.3882,2.3881,2.3819,2.3818,2.3817,2.3751,2.375,2.3749,2.3675,2.3674,2.3673,2.3671,2.3599,2.3598,2.3597,0,0,0,0,0,0,0,0,0,0,0,0,0,2.3838,2.3881,2.3819,2.3773,2.3768,2.3751,2.375,2.3749,2.3675,2.3674,2.3672,2.3671,2.3599,2.3598,2.3596,2.3619,0,0,2.3592,2.3591,0,0,0,0,0,0,0,0,2.3841,2.3836,2.378,2.3776,2.377,2.372,2.3745,2.3705,2.3676,2.371,2.3672,2.367,2.364,2.3635,2.3626,2.3616,2.3612,2.3592,2.3591,2.359,2.359,0,0,0,0,0,0,0,2.3844,2.3838,2.3792,2.378,2.3773,2.3754,2.3746,2.3737,2.3685,2.3707,2.3702,2.3695,2.3637,2.3627,2.3623,2.3611,2.3592,2.3591,2.359,2.3589,2.3614,2.3616,0,0,0,0,0,0,2.3854,2.3841,2.3794,2.379,2.3802,2.3754,2.3745,2.3738,2.3685,2.3675,2.3696,2.3692,2.363,2.3625,2.3621,2.3642,2.359,2.3589,2.3588,2.3613,2.3614,2.3616,0,0,0,0,0,0,2.3856,2.3851,2.3797,2.3814,2.3806,2.3755,2.3747,2.3737,2.3727,2.3676,2.3666,2.3696,2.3629,2.3623,2.362,2.3639,2.3588,2.3587,2.3611,2.3613,2.3615,2.3687,0,0,0,0,0,0,2.3858,2.3852,2.3861,2.3815,2.3805,2.3799,2.3748,2.3737,2.3725,2.3719,2.3674,2.3665,2.3627,2.3622,2.3618,2.3636,2.3586,2.3609,2.3612,2.3615,2.3682,2.3691,2.3698,0,0,0,0,0,2.3861,2.3883,2.3862,2.3856,2.3815,2.38,2.3794,2.3752,2.3727,2.3735,2.3702,2.3666,2.3637,2.3623,2.3617,2.3635,2.3607,2.3611,2.3614,2.3679,2.3689,2.3698,0,0,0,0,0,0,2.3932,2.3876,2.3852,2.3861,2.3836,2.3788,2.3796,2.3765,2.3745,2.3739,2.3686,2.3677,2.368,2.3657,2.3642,2.3653,2.3617,2.362,2.3668,2.3677,2.3685,2.369,2.3585,0,0,0,0,0,2.3949,2.3942,2.3893,2.3906,2.3895,2.3848,2.3839,2.3809,2.378,2.3769,2.3736,2.3709,2.3693,2.3684,2.3667,2.3679,2.3667,2.3688,2.3696,2.3703,2.3705,2.3708,2.3716,2.3627,2.3627,2.3627,0,0,2.3984,2.3952,2.3951,2.3919,2.3896,2.3889,2.3839,2.3834,2.3828,2.3768,2.3763,2.3738,2.3704,2.3708,2.3708,2.3689,2.3727,2.3707,2.3713,2.3712,2.3712,2.3721,2.3728,2.363,2.3629,2.3629,0,0,2.4043,2.4019,2.4026,2.4004,2.397,2.3939,2.3941,2.3897,2.3878,2.3873,2.3828,2.3819,2.3794,2.3771,2.3756,2.3805,2.3771,2.3801,2.3843,2.3847,2.3854,2.3859,2.3876,2.3883,2.3804,2.3804,2.3804,0,2.4089,2.4078,2.4033,2.4031,2.4017,2.3964,2.397,2.395,2.3912,2.3904,2.3883,2.385,2.3823,2.382,2.3832,2.3823,2.3821,2.3806,2.3856,2.3862,2.3867,2.3882,2.3888,2.3808,2.3808,2.3807,2.3807,0,2.4136,2.4129,2.4139,2.4104,2.4092,2.4094,2.4048,2.4041,2.4011,2.3982,2.3976,2.3942,2.3917,2.3914,2.3885,2.3907,2.3895,2.3867,2.3829,2.388,2.3893,2.3898,2.3814,2.3812,2.3811,2.381,0,0,2.4238,2.4179,2.4183,2.4167,2.4125,2.4118,2.4116,2.4093,2.4087,2.4062,2.4059,2.4038,2.4011,2.3994,2.3961,2.3965,2.4004,2.3935,2.3933,2.3948,2.4024,2.4046,2.4054,2.3981,2.3982,2.3983,2.4027,0,2.4289,2.4285,2.4244,2.4251,2.4243,2.4191,2.419,2.4163,2.4136,2.4123,2.4092,2.4078,2.4043,2.4033,2.4033,2.4,2.4019,2.3996,2.3976,2.3975,2.3985,2.4061,2.4084,2.4127,2.4032,2.4033,2.4033,0,2.4348,2.4328,2.4334,2.4292,2.4286,2.4286,2.426,2.425,2.4218,2.4197,2.4179,2.4142,2.4136,2.4102,2.4091,2.4077,2.4066,2.4048,2.4048,2.4044,2.4007,2.4057,2.414,2.4146,2.4041,2.4041,2.404,0,2.442,2.4395,2.4395,2.4382,2.4333,2.4334,2.4313,2.428,2.4268,2.4245,2.4236,2.4212,2.4199,2.4181,2.4138,2.4118,2.4132,2.4095,2.4113,2.4114,2.4118,2.4118,2.4199,2.4113,2.4113,2.4112,2.4112,0,2.4481,2.4486,2.4426,2.4426,2.443,2.4383,2.4388,2.4362,2.4333,2.4326,2.428,2.4273,2.4218,2.4205,2.4171,2.4167,2.4161,2.4143,2.4134,2.4147,2.4149,2.4138,2.4134,2.4114,2.4114,2.4113,2.4113,0,2.4562,2.4522,2.4519,2.4473,2.4461,2.4466,2.4426,2.4423,2.4392,2.4384,2.4379,2.433,2.4312,2.4268,2.4238,2.4215,2.4219,2.4203,2.423,2.4224,2.4245,2.4243,2.4321,2.4328,2.4239,2.424,2.4241,0,2.4603,2.4606,2.456,2.4553,2.4534,2.4523,2.451,2.4464,2.4453,2.4416,2.4417,2.4396,2.4377,2.435,2.4311,2.4287,2.4269,2.4298,2.4265,2.4278,2.4268,2.4268,2.4268,2.4305,2.4306,2.4307,2.4308,0,2.4679,2.4659,2.4644,2.4622,2.4609,2.4589,2.4566,2.4562,2.4509,2.4498,2.448,2.4465,2.4435,2.4414,2.4384,2.4361,2.4325,2.4319,2.4322,2.4334,2.435,2.434,2.4249,2.4317,2.4316,2.4316,2.4315,2.4315,2.474,2.474,2.4708,2.4692,2.4671,2.465,2.4645,2.4614,2.4599,2.4571,2.4544,2.4529,2.4495,2.4452,2.4431,2.4416,2.4398,2.4403,2.4403,2.4405,2.441,2.4353,2.4411,2.441,2.441,2.441,2.441,0,2.4813,2.479,2.4776,2.4746,2.4733,2.4703,2.4676,2.4666,2.4654,2.4626,2.4608,2.4587,2.4566,2.4525,2.45,2.4496,2.4479,2.4491,2.449,2.4485,2.4428,2.4428,2.4505,2.4505,2.4505,2.4505,2.4505,2.4505,2.4849,2.4847,2.4824,2.481,2.4786,2.4772,2.4759,2.4739,2.4717,2.4695,2.4678,2.4652,2.4619,2.4591,2.4569,2.4558,2.455,2.4567,2.455,2.4498,2.4489,2.448,2.448,2.4566,2.4566,2.4607,2.4608,2.4608]}]]